Regional Weather Roundup
Issued by NWS

Home | Current Version | Previous Version | Graphics & Text | Print | Product List | Glossary On
Versions: 1 2 3 4 5 6 7 8 9 10 11 12 13 14 15 16 17 18 19 20 21 22 23 24 25 26 27 28 29 30 31 32 33 34 35 36 37 38 39 40 41 42 43 44 45 46 47 48 49 50
000
ASUS45 KTFX 010604
RWRMT
MONTANA HOURLY WEATHER ROUNDUP
NATIONAL WEATHER SERVICE GREAT FALLS MT
1204 AM MDT SAT NOV 1 2014

NOTE: "FAIR" INDICATES FEW OR NO CLOUDS BELOW 12000 FEET WITH NO
SIGNIFICANT WEATHER AND/OR OBSTRUCTIONS TO VISIBILITY.

* THESE STATIONS ARE NOT UNDER NWS QUALITY CONTROL. THEY DO NOT
   REPORT WEATHER SUCH AS PRECIPITATION OR FOG.

MTZ001>007-043-010700-
WEST OF THE DIVIDE
CITY           SKY/WX    TMP DP  RH WIND       PRES   REMARKS
KALISPELL      FOG       37  37 100 W5        29.77S VSB 1/2  WCI  33
MISSOULA       PTCLDY    39  37  93 W5        29.77S WCI  35
BUTTE          CLEAR     39  27  62 CALM      29.81F
MULLAN PASS    MOCLDY    39  36  89 CALM      29.81F
* ESSEX        N/A       35  34  96 W1         N/A
* LINCOLN      N/A       31  29  92 W1         N/A
* LOOKOUT PASS N/A       41  40  96 NW1        N/A
* POLSON       N/A       40  40 100 SE1        N/A
* RONAN APT    PTCLDY    36  34  92 N/A        N/A
* SEELEY LAKE  N/A       31  29  92 N1         N/A
* THOMP F APT  PTCLDY    46  24  42 NE8        N/A
* YAAK HILL    N/A       45  42  89 SW1        N/A
$$

MTZ008-052>055-010700-
SOUTHWEST MONTANA
CITY           SKY/WX    TMP DP  RH WIND       PRES   REMARKS
DILLON         PTCLDY    48  23  37 W7        29.79S
W YELLOWSTONE  PTCLDY    32  27  82 CALM      29.92F
* THREE FORKS  PTCLDY    46  43  89 N/A        N/A
* BOULDER HILL N/A       48  23  37 S4         N/A
* MONIDA PASS  N/A       39  23  53 SE9        N/A   WCI  33
* RAYNOLDS PAS N/A       42  28  58 S9         N/A
* WHITEHALL    N/A       42  27  55 N10        N/A
* WISE RIVER   N/A       36  28  73 SW2        N/A
$$

MTZ009>010-012-014-046-048-049-054-010700-
EAST SLOPES AND CENTRAL MONTANA
CITY           SKY/WX    TMP DP  RH WIND       PRES   REMARKS
CUT BANK       CLEAR     48  30  50 W8        29.71F
GREAT FALLS    CLEAR     43  32  65 W8        29.72S
HELENA         CLEAR     39  34  82 CALM      29.76F
MALMSTROM AFB  CLEAR     41  32  70 S1        29.74S
* CONRAD       CLEAR     30  28  92 N/A        N/A
* DEARBORN     N/A       39  33  79 SW1        N/A
* EAST GLACIER N/A       49  32  52 W12G17     N/A
* MONARCH      N/A       42  22  45 S6         N/A
* ROGERS PASS  N/A       43  29  58 NW2        N/A
* SAINT MARY   N/A       52  32  47 S6G16      N/A
* SWEET GRASS  N/A       54  29  38 SW20       N/A
$$

MTZ011-013-016-021-035-040-045-047-050-051-010700-
NORTH CENTRAL MONTANA
CITY           SKY/WX    TMP DP  RH WIND       PRES   REMARKS
HAVRE          CLEAR     32  30  92 SW3       29.72S
LEWISTOWN      CLOUDY    50  32  50 SE6       29.75F
* N BAR RANCH  CLEAR     52  30  43 N5        29.78F
* CHESTER      N/A       32  28  85 N3         N/A
* DENTON       N/A       49  34  56 S11        N/A
* JUDITH GAP   N/A       46  33  61 S3         N/A
* LOMA         N/A       41  35  79 NW1G6      N/A
$$

MTZ017>020-022>027-061-062-010700-
NORTHEAST MONTANA
CITY           SKY/WX    TMP DP  RH WIND       PRES   REMARKS
GLASGOW        MOCLDY    39  30  70 E14       29.73F WCI  31
GLENDIVE       CLEAR     39  27  62 S3        29.81F
JORDAN         CLOUDY    39  32  76 E3        29.73F
SIDNEY         CLEAR     34  19  54 SE7       29.85F WCI  28
WOLF POINT     CLEAR     34  28  79 NE7       29.78F WCI  28
* BEAVER HILL  N/A       36  22  57 E16G24     N/A   WCI  26
* CIRCLE       N/A       42  33  71 N/A        N/A
* LINDSAY DVD  N/A       34  28  79 E8         N/A   WCI  27
* NAVAJO       N/A       36  25  64 S9G14      N/A   WCI  29
* PLENTYWOOD A N/A       39 N/A N/A N/A        N/A
* SACO         N/A       40  33  76 E6         N/A   WCI  36
$$

MTZ028>042-056>058-010700-
SOUTHCENTRAL AND SOUTHEAST MONTANA
CITY           SKY/WX    TMP DP  RH WIND       PRES   REMARKS
BAKER          CLEAR     37  27  67 SE9       29.83F WCI  30
BILLINGS       CLOUDY    48  32  54 SW6       29.76F
LIVINGSTON     PTCLDY    48  30  50 VRB3      29.78F
MILES CITY     MOCLDY    45  32  60 SE7       29.77F
* LAUREL APT   CLOUDY    46  28  50 N/A        N/A
* ROUNDUP APT  CLOUDY    48  28  46 S5         N/A
* ALZADA       N/A       35  29  79 E5         N/A   WCI  31
* LAME DEER    N/A       49  31  50 SE8        N/A
* REED POINT   N/A       38  32  79 N/A        N/A
* ROSCOE HILL  N/A       61  21  21 N/A        N/A
$$

REGIONAL REPORTS...DAKOTAS
CITY           SKY/WX    TMP DP  RH WIND       PRES   REMARKS
WILLISTON      CLEAR     37  18  46 S10       29.86F WCI  30
DICKINSON      CLEAR     34  16  48 S20       29.86F WCI  23
BEACH          N/A       34  18  52 SE14      29.83F WCI  24
CROSBY         CLEAR     36  18  48 S14G20    29.86F WCI  27
TIOGA          CLEAR     32  18  56 S15       29.91F WCI  22
BISMARCK       PTCLDY    34  16  48 SE17      30.06F WCI  23
GRAND FORKS    CLOUDY    34  19  54 S15       30.29F WCI  24
FARGO          MOCLDY    32  19  59 SE18G26   30.33F WCI  21
BUFFALO SD     CLEAR     37  25  62 SE13      29.79F WCI  29
RAPID CITY     PTCLDY    39  28  65 S17       29.90F WCI  30
$$

REGIONAL REPORTS...WYOMING/IDAHO/WASHINGTON
CITY           SKY/WX    TMP DP  RH WIND       PRES   REMARKS
GILLETTE       PTCLDY    43  30  60 S17       29.84S
SHERIDAN       CLOUDY    36  30  79 W6        29.80F WCI  31
CODY           MOCLDY    54  25  33 SE3       29.85S
YELLOWSTONE LA PTCLDY    28  25  89 NW3       30.00F
SALMON         CLEAR     37  32  82 SE3       29.75F
MULLAN PASS    MOCLDY    39  36  89 CALM      29.81S
SAND POINT     CLOUDY    46  46 100 CALM      29.80S
SPOKANE        CLOUDY    46  46 100 S5        29.80S

$$




USA.gov is the U.S. government's official web portal to all federal, state and local government web resources and services.